Location: Hollin Hills
(38.7573°N, 77.0661°W)
Time: 11:27:17
(UTC+00:00)

ISS - Pass Details

Date: 20 April 2026
Orbit: 414 x 424 km, 51.6° (Epoch: 11 May)

Event Time Altitude Azimuth Distance (km) Brightness Sun altitude
Exits shadow 09:39:36 12° 264° (W) 1,374 -1.8 -9.2°
Maximum altitude 09:42:22 34° 329° (NNW) 719 -2.7 -8.7°
Drops below altitude 10° 09:45:29 10° 36° (NE) 1,506 0.1 -8.1°
Sets 09:47:43 0° 46° (NE) 2,375 1.5 -7.7°
